When you browse on this site, cookies collect data to enhance your experience and personalize the content and advertising you see.
Visit our Privacy Policy to learn more. By continuing to use the site, you agree to this use of cookies and data.
  • In Spain
  • List of Countries
  • For 7 days
  • Water Temperature
  • Satellite Maps
  • Weather Map
  • Weather Widgets
  • user-avatar
    Login

    Hourly Weather Bihać

    Today, 18 January, Friday

    Time Temperature Precipitation Wind Pressure Humidity
    00:00 +3°C° 0.4 mm 5 mps 706 mmHg 93%
    01:00 +4°C° 0 mm 3 mps 705 mmHg 93%
    02:00 +4°C° 0.6 mm 3 mps 705 mmHg 94%
    03:00 +5°C° 0.6 mm 3 mps 705 mmHg 94%
    04:00 +5°C° 0.6 mm 4 mps 704 mmHg 94%
    05:00 +4°C° 0.1 mm 3 mps 704 mmHg 93%
    06:00 +5°C° 0.1 mm 2 mps 704 mmHg 93%
    07:00 +5°C° 0 mm 2 mps 704 mmHg 92%
    08:00 +6°C° 0.2 mm 2 mps 705 mmHg 91%
    09:00 +6°C° 0.2 mm 2 mps 706 mmHg 89%
    10:00 +7°C° 0.2 mm 2 mps 706 mmHg 88%
    11:00 +4°C° 1.7 mm 3 mps 706 mmHg 89%
    12:00 +3°C° 1.7 mm 3 mps 707 mmHg 89%
    13:00 +1°C° 1.7 mm 4 mps 707 mmHg 90%
    14:00 0°C° 0.7 mm 4 mps 707 mmHg 88%
    15:00 -1°C° 0.7 mm 4 mps 707 mmHg 87%
    16:00 -2°C° 0.7 mm 5 mps 707 mmHg 85%
    17:00 -2°C° 0.2 mm 4 mps 708 mmHg 85%
    18:00 -2°C° 0.2 mm 4 mps 708 mmHg 85%
    19:00 -3°C° 0.2 mm 4 mps 708 mmHg 85%
    20:00 -3°C° 0.5 mm 4 mps 708 mmHg 86%
    21:00 -3°C° 0.5 mm 4 mps 709 mmHg 87%
    22:00 -3°C° 0.5 mm 4 mps 709 mmHg 88%
    23:00 -3°C° 0.3 mm 4 mps 709 mmHg 88%

    Tomorrow, 19 January, Saturday

    Time Temperature Precipitation Wind Pressure Humidity
    00:00 -3°C° 0.3 mm 4 mps 709 mmHg 88%
    01:00 -3°C° 0.3 mm 4 mps 709 mmHg 88%
    02:00 -2°C° 0.1 mm 3 mps 709 mmHg 88%
    03:00 -2°C° 0.1 mm 3 mps 709 mmHg 88%
    04:00 -2°C° 0.1 mm 3 mps 708 mmHg 88%
    05:00 -2°C° 0.4 mm 3 mps 708 mmHg 89%
    06:00 -2°C° 0.4 mm 3 mps 708 mmHg 90%
    07:00 -4°C° 0.4 mm 3 mps 708 mmHg 90%
    08:00 -4°C° 1.3 mm 3 mps 708 mmHg 91%
    09:00 -4°C° 1.3 mm 3 mps 708 mmHg 91%
    10:00 -4°C° 1.3 mm 3 mps 708 mmHg 92%
    11:00 -4°C° 1.1 mm 3 mps 708 mmHg 92%
    12:00 -4°C° 1.1 mm 3 mps 708 mmHg 91%
    13:00 -4°C° 1.1 mm 3 mps 707 mmHg 91%
    14:00 -4°C° 0.4 mm 3 mps 707 mmHg 91%
    15:00 -4°C° 0.4 mm 3 mps 707 mmHg 91%
    16:00 -4°C° 0.4 mm 3 mps 707 mmHg 90%
    17:00 -4°C° 0.2 mm 3 mps 707 mmHg 90%
    18:00 -4°C° 0.2 mm 3 mps 707 mmHg 90%
    19:00 -4°C° 0.2 mm 3 mps 707 mmHg 90%
    20:00 -4°C° 0 mm 2 mps 707 mmHg 91%
    21:00 -4°C° 0 mm 2 mps 707 mmHg 91%
    22:00 -4°C° 0 mm 2 mps 707 mmHg 92%
    23:00 -4°C° 0 mm 2 mps 707 mmHg 92%

    Day after tomorrow, 20 January, Sunday

    Time Temperature Precipitation Wind Pressure Humidity
    00:00 -4°C° 0 mm 2 mps 707 mmHg 92%
    01:00 -4°C° 0 mm 2 mps 707 mmHg 92%
    02:00 -4°C° 0 mm 2 mps 706 mmHg 92%
    03:00 -2°C° 0 mm 1 mps 706 mmHg 92%
    04:00 -2°C° 0 mm 1 mps 706 mmHg 92%
    05:00 -2°C° 0 mm 1 mps 706 mmHg 91%
    06:00 -2°C° 0 mm 1 mps 706 mmHg 90%
    07:00 -2°C° 0 mm 1 mps 706 mmHg 89%
    08:00 -1°C° 0 mm 1 mps 707 mmHg 88%
    09:00 +1°C° 0 mm 1 mps 707 mmHg 86%
    10:00 +1°C° 0 mm 0 mps 708 mmHg 84%
    11:00 +2°C° 0 mm 0 mps 708 mmHg 85%
    12:00 +4°C° 0 mm 1 mps 708 mmHg 85%
    13:00 +4°C° 0 mm 1 mps 708 mmHg 85%
    14:00 +4°C° 0 mm 1 mps 707 mmHg 86%
    15:00 +3°C° 0 mm 0 mps 707 mmHg 86%
    16:00 +2°C° 0 mm 0 mps 707 mmHg 87%
    17:00 +2°C° 0 mm 1 mps 708 mmHg 88%
    18:00 +1°C° 0 mm 1 mps 708 mmHg 89%
    19:00 0°C° 0 mm 1 mps 708 mmHg 90%
    20:00 0°C° 0 mm 1 mps 708 mmHg 91%
    21:00 0°C° 0 mm 1 mps 709 mmHg 92%
    22:00 0°C° 0 mm 1 mps 709 mmHg 92%
    23:00 0°C° 0 mm 1 mps 709 mmHg 93%

    21 January, Monday

    Time Temperature Precipitation Wind Pressure Humidity
    00:00 -2°C° 0 mm 2 mps 709 mmHg 93%
    01:00 -2°C° 0 mm 2 mps 709 mmHg 93%
    02:00 -2°C° 0 mm 2 mps 709 mmHg 93%
    03:00 -2°C° 0 mm 2 mps 709 mmHg 92%
    04:00 -2°C° 0 mm 2 mps 709 mmHg 92%
    05:00 -2°C° 0.1 mm 2 mps 709 mmHg 91%
    06:00 -2°C° 0.1 mm 2 mps 710 mmHg 91%
    07:00 -2°C° 0.1 mm 3 mps 710 mmHg 91%
    08:00 -2°C° 0.2 mm 3 mps 710 mmHg 90%
    09:00 -2°C° 0.2 mm 3 mps 710 mmHg 89%
    10:00 -2°C° 0.2 mm 3 mps 711 mmHg 88%
    11:00 -2°C° 0.3 mm 3 mps 711 mmHg 88%
    12:00 -2°C° 0.3 mm 3 mps 710 mmHg 88%
    13:00 -3°C° 0.3 mm 4 mps 710 mmHg 88%
    14:00 -3°C° 0.3 mm 4 mps 710 mmHg 88%
    15:00 -3°C° 0.3 mm 4 mps 710 mmHg 88%
    16:00 -4°C° 0.3 mm 4 mps 710 mmHg 88%
    17:00 -4°C° 0.3 mm 4 mps 710 mmHg 88%
    18:00 -4°C° 0.3 mm 4 mps 710 mmHg 89%
    19:00 -4°C° 0.3 mm 4 mps 710 mmHg 89%
    20:00 -5°C° 0.4 mm 4 mps 710 mmHg 89%
    21:00 -5°C° 0.4 mm 4 mps 710 mmHg 89%
    22:00 -5°C° 0.4 mm 4 mps 711 mmHg 90%
    23:00 -5°C° 0.5 mm 4 mps 710 mmHg 90%

    22 January, Tuesday

    Time Temperature Precipitation Wind Pressure Humidity
    00:00 -5°C° 0.5 mm 4 mps 710 mmHg 90%
    01:00 -7°C° 0.5 mm 4 mps 710 mmHg 90%
    02:00 -6°C° 0.5 mm 3 mps 709 mmHg 91%
    03:00 -6°C° 0.5 mm 3 mps 709 mmHg 91%
    04:00 -6°C° 0.5 mm 3 mps 709 mmHg 91%
    05:00 -6°C° 0.3 mm 3 mps 708 mmHg 91%
    06:00 -6°C° 0.3 mm 3 mps 708 mmHg 91%
    07:00 -7°C° 0.3 mm 3 mps 708 mmHg 91%
    08:00 -6°C° 0.1 mm 3 mps 707 mmHg 90%
    09:00 -6°C° 0.1 mm 3 mps 707 mmHg 89%
    10:00 -5°C° 0.1 mm 3 mps 707 mmHg 89%
    11:00 -4°C° 0.1 mm 3 mps 706 mmHg 89%
    12:00 -3°C° 0.1 mm 2 mps 706 mmHg 90%
    13:00 -2°C° 0.1 mm 2 mps 705 mmHg 90%
    14:00 -2°C° 0.1 mm 2 mps 704 mmHg 91%
    15:00 -2°C° 0.1 mm 2 mps 704 mmHg 91%
    16:00 -1°C° 0.1 mm 2 mps 703 mmHg 92%
    17:00 -2°C° 0.1 mm 2 mps 702 mmHg 92%
    18:00 0°C° 0.1 mm 1 mps 702 mmHg 92%
    19:00 0°C° 0.1 mm 1 mps 701 mmHg 92%
    20:00 0°C° 0.2 mm 1 mps 700 mmHg 92%
    21:00 0°C° 0.2 mm 1 mps 700 mmHg 93%
    22:00 0°C° 0.2 mm 1 mps 699 mmHg 93%
    23:00 +1°C° 0.1 mm 1 mps 698 mmHg 93%

    23 January, Wednesday

    Time Temperature Precipitation Wind Pressure Humidity
    00:00 +1°C° 0.1 mm 1 mps 698 mmHg 94%
    01:00 0°C° 0.1 mm 0 mps 697 mmHg 94%
    02:00 +1°C° 0.7 mm 0 mps 696 mmHg 95%
    03:00 +1°C° 0.7 mm 0 mps 695 mmHg 96%
    04:00 +1°C° 0.7 mm 0 mps 695 mmHg 97%
    05:00 +2°C° 0.8 mm 1 mps 694 mmHg 97%
    06:00 +2°C° 0.8 mm 1 mps 693 mmHg 96%
    07:00 +2°C° 0.8 mm 1 mps 693 mmHg 95%
    08:00 +2°C° 0.2 mm 1 mps 692 mmHg 95%
    09:00 +2°C° 0.2 mm 1 mps 692 mmHg 95%
    10:00 +3°C° 0.2 mm 1 mps 691 mmHg 95%
    11:00 +3°C° 0.3 mm 1 mps 690 mmHg 94%
    12:00 +2°C° 0.3 mm 2 mps 689 mmHg 94%
    13:00 +1°C° 0.3 mm 3 mps 689 mmHg 94%
    14:00 +1°C° 1.8 mm 3 mps 688 mmHg 95%
    15:00 +2°C° 1.8 mm 3 mps 687 mmHg 95%
    16:00 +2°C° 1.8 mm 3 mps 687 mmHg 96%
    17:00 +1°C° 0.9 mm 3 mps 686 mmHg 96%
    18:00 +2°C° 0.9 mm 2 mps 686 mmHg 96%
    19:00 +1°C° 0.9 mm 2 mps 686 mmHg 95%
    20:00 +1°C° 0.2 mm 2 mps 685 mmHg 95%
    21:00 +1°C° 0.2 mm 1 mps 685 mmHg 95%
    22:00 0°C° 0.2 mm 1 mps 684 mmHg 95%
    23:00 -2°C° 1.2 mm 2 mps 683 mmHg 94%
    Show more